Brainerd, MN

1:01 AM CST on February 14, 2016 (GMT -0600)
Brainerd-Crow Wing County Regional

Weather History for KBRD - October, 2010

Change the Weather History Date:

Tuesday, October 19, 2010

  Actual Average Record
Temperature  
Mean Temperature 48 °F -  
Max Temperature 60 °F 52 °F 82 °F (2000)
Min Temperature 35 °F 28 °F 11 °F (1972)
Degree Days  
Heating Degree Days 18    
Moisture  
Dew Point 31 °F    
Average Humidity 58    
Maximum Humidity 83    
Minimum Humidity 28    
Precipitation  
Precipitation 0.00 in - - ()
Sea Level Pressure  
Sea Level Pressure 29.88 in    
Wind  
Wind Speed 8 mph (SW)    
Max Wind Speed 18 mph    
Max Gust Speed -    
Visibility 10 miles    
Events      
Averages and records for this station are not official NWS values.
T = Trace of Precipitation, MM = Missing Value Source: NWS Daily Summary

Daily Weather History Graph

Daily Weather History Graph

Search for Another Location

Airport or City:

Trip Planner

Search our weather history database for the weather conditions in past years. The results will help you decide how hot, cold, wet, or windy it might be!

Date:

Astronomy

Oct. 19, 2010 Rise Set
Actual Time 7:39 AM CDT 6:22 PM CDT
Civil Twilight 7:08 AM CDT 6:53 PM CDT
Nautical Twilight 6:33 AM CDT 7:28 PM CDT
Astronomical Twilight 5:59 AM CDT 8:03 PM CDT
Moon 4:39 PM CDT (10/19) 4:15 AM CDT (10/19)
Length of Visible Light 11h 44m
Length of Day
10h 43m
Waxing Gibbous, 90% of the Moon is Illuminated
Oct 19
Waxing Gibbous
Oct 22
Full
Oct 30
Last Quarter
Nov 5
New
Nov 13
First Quarter

Hourly Weather History & Observations

Time (CDT) Temp. Windchill Dew Point Humidity Pressure Visibility Wind Dir Wind Speed Gust Speed Precip Events Conditions
12:53 AM 39.0 °F 34.0 °F 33.1 °F 79% 30.00 in 9.0 mi SW 6.9 mph - N/A   Clear
1:53 AM 37.9 °F 33.5 °F 33.1 °F 83% 29.99 in 10.0 mi SW 5.8 mph - N/A   Clear
2:53 AM 39.0 °F 34.0 °F 34.0 °F 82% 29.97 in 9.0 mi SW 6.9 mph - N/A   Clear
3:53 AM 39.9 °F 36.7 °F 34.0 °F 79% 29.97 in 10.0 mi SW 4.6 mph - N/A   Clear
4:53 AM 42.1 °F 37.7 °F 35.1 °F 76% 29.96 in 10.0 mi WSW 6.9 mph - N/A   Clear
5:53 AM 37.9 °F 32.7 °F 32.0 °F 79% 29.96 in 10.0 mi SW 6.9 mph - N/A   Clear
6:53 AM 35.1 °F 32.2 °F 30.0 °F 82% 29.96 in 8.0 mi SW 3.5 mph - N/A   Clear
7:53 AM 37.0 °F 32.4 °F 32.0 °F 82% 29.96 in 8.0 mi WSW 5.8 mph - N/A   Clear
8:53 AM 41.0 °F 36.4 °F 35.1 °F 79% 29.96 in 7.0 mi SW 6.9 mph - N/A   Clear
9:53 AM 45.0 °F 40.6 °F 35.1 °F 68% 29.95 in 10.0 mi WSW 8.1 mph - N/A   Clear
10:53 AM 48.0 °F - 34.0 °F 58% 29.95 in 10.0 mi WSW 9.2 mph - N/A   Clear
11:53 AM 54.0 °F - 33.1 °F 45% 29.93 in 10.0 mi WSW 5.8 mph - N/A   Clear
12:53 PM 55.9 °F - 32.0 °F 40% 29.90 in 10.0 mi WSW 9.2 mph - N/A   Clear
2:53 PM 60.1 °F - 28.9 °F 31% 29.84 in 10.0 mi WSW 13.8 mph - N/A   Clear
3:53 PM 59.0 °F - 28.0 °F 31% 29.81 in 10.0 mi SW 18.4 mph - N/A   Clear
4:53 PM 59.0 °F - 26.1 °F 28% 29.80 in 10.0 mi WSW 11.5 mph - N/A   Clear
5:53 PM 55.9 °F - 28.9 °F 36% 29.78 in 10.0 mi SW 13.8 mph - N/A   Clear
6:53 PM 53.1 °F - 28.9 °F 40% 29.79 in 10.0 mi SW 9.2 mph - N/A   Clear
7:53 PM 48.9 °F - 28.9 °F 46% 29.78 in 10.0 mi SSW 6.9 mph - N/A   Clear
8:53 PM 48.0 °F - 28.9 °F 48% 29.76 in 10.0 mi SSW 8.1 mph - N/A   Clear
9:53 PM 46.9 °F - 30.0 °F 52% 29.75 in 10.0 mi SW 8.1 mph - N/A   Clear
10:53 PM 51.1 °F - 30.9 °F 46% 29.73 in 10.0 mi WSW 10.4 mph - N/A   Clear
11:53 PM 50.0 °F - 30.9 °F 48% 29.72 in 10.0 mi WSW 10.4 mph - N/A   Clear